Calaveras, Mexico

7:24 AM MST on February 22, 2017 (GMT -0700)
Gen Rafael Buelna International

Weather History for MMMZ - October, 2012

Change the Weather History Date:

Friday, October 26, 2012

  Actual Average Record
Temperature  
Mean Temperature 75 °F -  
Max Temperature 84 °F 86 °F 92 °F (2016)
Min Temperature 66 °F 66 °F 59 °F (2007)
Cooling Degree Days 10    
Growing Degree Days 25 (Base 50)    
Moisture  
Dew Point 68 °F    
Average Humidity 81    
Maximum Humidity 94    
Minimum Humidity 55    
Precipitation  
Precipitation 0.00 in - - ()
Sea Level Pressure  
Sea Level Pressure 29.78 in    
Wind  
Wind Speed 6 mph ()    
Max Wind Speed 9 mph    
Max Gust Speed -    
Visibility 10.7 miles    
Events      
Averages and records for this station are not official NWS values.
T = Trace of Precipitation, MM = Missing Value Source: Averaged Metar Reports

Daily Weather History Graph

Daily Weather History Graph

Search for Another Location

Airport or City:

Trip Planner

Search our weather history database for the weather conditions in past years. The results will help you decide how hot, cold, wet, or windy it might be!

Date:

Astronomy

Oct. 26, 2012 Rise Set
Actual Time 7:07 AM MDT 6:30 PM MDT
Civil Twilight 6:44 AM MDT 6:53 PM MDT
Nautical Twilight 6:17 AM MDT 7:19 PM MDT
Astronomical Twilight 5:51 AM MDT 7:46 PM MDT
Moon 4:34 PM MDT (10/26) 4:23 AM MDT (10/26)
Length of Visible Light 12h 08m
Length of Day
11h 22m
Waxing Gibbous, 91% of the Moon is Illuminated
Oct 26
Waxing Gibbous
Oct 29
Full
Nov 6
Last Quarter
Nov 13
New
Nov 20
First Quarter

Hourly Weather History & Observations

Time (MDT) Temp. Heat Index Dew Point Humidity Pressure Visibility Wind Dir Wind Speed Gust Speed Precip Events Conditions
12:42 AM 69.8 °F - 68.0 °F 94% 29.76 in 10.0 mi North 6.9 mph - N/A   Clear
1:51 AM 68.0 °F - 66.2 °F 94% 29.76 in 10.0 mi NNE 5.8 mph - N/A   Clear
2:52 AM 68.0 °F - 66.2 °F 94% 29.76 in 8.0 mi North 6.9 mph - N/A   Clear
3:51 AM 68.0 °F - 66.2 °F 94% 29.75 in 8.0 mi NNE 5.8 mph - N/A   Clear
4:42 AM 68.0 °F - 66.2 °F 94% 29.76 in 8.0 mi NNE 6.9 mph - N/A   Clear
5:45 AM 68.0 °F - 66.2 °F 94% 29.80 in 8.0 mi North 6.9 mph - N/A   Clear
6:46 AM 66.2 °F - 64.4 °F 94% 29.78 in 10.0 mi North 8.1 mph - N/A   Clear
7:41 AM 68.0 °F - 66.2 °F 94% 29.80 in 8.0 mi NNE 8.1 mph - N/A   Clear
8:40 AM 71.6 °F - 69.8 °F 94% 29.82 in 10.0 mi North 5.8 mph - N/A   Clear
9:40 AM 75.2 °F - 71.6 °F 89% 29.84 in 10.0 mi WNW 3.5 mph - N/A   Clear
10:51 AM 80.6 °F 82.7 °F 66.2 °F 61% 29.84 in 10.0 mi WSW 6.9 mph - N/A   Clear
11:45 AM 84.2 °F 86.6 °F 66.2 °F 55% 29.82 in 12.0 mi SSE 6.9 mph - N/A   Clear
12:41 PM 84.2 °F 88.4 °F 69.8 °F 62% 29.79 in 12.0 mi SW 6.9 mph - N/A   Clear
1:40 PM 84.2 °F 87.3 °F 68.0 °F 58% 29.77 in 12.0 mi SSW 8.1 mph - N/A   Clear
2:47 PM 84.2 °F 87.3 °F 68.0 °F 58% 29.74 in 10.0 mi SW 8.1 mph - N/A   Clear
3:44 PM 84.2 °F 89.6 °F 71.6 °F 66% 29.73 in 15.0 mi SW 9.2 mph - N/A   Clear
4:42 PM 82.4 °F 86.3 °F 69.8 °F 66% 29.73 in 15.0 mi WSW 9.2 mph - N/A   Clear
5:44 PM 80.6 °F 84.6 °F 71.6 °F 74% 29.74 in 15.0 mi WSW 8.1 mph - N/A   Clear
6:43 PM 75.2 °F - 69.8 °F 83% 29.75 in 12.0 mi West 6.9 mph - N/A   Clear
7:47 PM 73.4 °F - 68.0 °F 83% 29.76 in 12.0 mi NW 6.9 mph - N/A   Clear
8:45 PM 73.4 °F - 68.0 °F 83% 29.77 in 12.0 mi WNW 6.9 mph - N/A   Clear
10:05 PM 71.6 °F - 68.0 °F 88% 29.78 in 10.0 mi NNW 8.1 mph - N/A   Clear
10:06 PM 71.6 °F - 68.0 °F 88% 29.78 in 10.0 mi NNW 8.1 mph - N/A   Clear
10:43 PM 71.6 °F - 68.0 °F 88% 29.78 in 10.0 mi North 8.1 mph - N/A   Clear
11:43 PM 69.8 °F - 66.2 °F 88% 29.79 in 10.0 mi North 6.9 mph - N/A   Clear